FENGYUN 1C DEB, 29904

Orbit data source: Space-Track

FENGYUN 1C DEB, 29904 is space debris in SSO originally from a launch on Mon, 10 May 1999 UTC launched from the Taiyaun Space Center, China (TSC). Fengyun 1C debris stems from the Chinese weather satellite Fengyun-1C, which was intentionally destroyed by a Chinese anti-satellite missile in 2007. This event dramatically increased the amount of space debris, with thousands of trackable fragments posing hazards to satellites and human spaceflight. The Fengyun 1C debris cloud has become a focal point in discussions about space sustainability and the need for international regulations to prevent the creation of new debris.

Loading next visibility...
Identifier
29904, 1999-025HA
Orbit
SSO
Country
Flag of CNCN / PRC
Related business
Manufacturer
Unknown
Mission
Spacecraft
Bus & Motor
Unknown
Mass
Unknown
Launch date (UTC)
1999-05-10 (26 years ago)
Launch vehicle
Unknown
Launch site
Taiyaun Space Center, China (TSC)
Object type
Payload
Rocket body
Debris
Shape & HBR
Unknown shape, 0.2 m
Radar Cross Section
Small (<0.1 m²)

Expand to show TLE details & history
Last TLE update: 13 hours ago

TLE from 13 hours ago
0 FENGYUN 1C DEB
1 29904U 99025HA  25310.54375134  .00003027  00000-0  68528-3 0  9996
2 29904  99.0464 346.1038 0209948  66.1685 296.1357 14.44273390985414
Epoch: 2025-11-06T13:03Z
TLE epoch observation values (Epoch: 2025-11-06T13:03:00.115Z)
Latitude
0.00003°
Longitude
104.35276°
Altitude
684.033 km
Speed
7.548 km/s
True Right ascension
23h 04m 24s
True Declination
0° 00' 00"
Sunlit
Object was in full shadow at epoch
Visualization orbit readout
Latitude
Unknown
Longitude
Unknown
Altitude
Unknown
Speed
Unknown
Apparent Right ascension
Unknown
Apparent Declination
Unknown
Sunlit
N/A
Visualization observer readout
Local Sidereal Time
21:47:32
Azimuth
Unknown
Elevation
Unknown
Doppler factor
Unknown
Orbital elements
Apogee altitude
891.031 km
Perigee altitude
592.078 km
Semi-major axis
7,119.692 km
Eccentricity
0.02099
Inclination
99.0464°
RAAN
346.1038°
Arg. of periapsis
66.1685°
True anomaly
293.95114°
Mean anomaly
296.1357°
Eccentric anomaly
295.0459°
Mean motion
3.61286 °/min
Orbital period
99.64 mins
BSTAR
0.00068528
Loading maneuver chart data...
Computing Atmospheric mass density...

Documentation

Showing up to 5 results
|